COSMOS 1809

Satellite information

Favourite Embed

Satellite Type and Status

PAYLOADIN ORBIT

Key statistics

Satellite COSMOS 1809 at a glance.

Uptime

14184

Days in orbit

Revolutions

≈ 13.8

Per day

Orbit

LEO

Low Earth Orbit

Inclination

82.5

Latest

Satellite identification and parameters

Extended collection of information and parameters for COSMOS 1809.

Object identification

Identified? True

Debris? False

Object name: COSMOS 1809

International designator: 1986-101A

Object number (NORAD): 17241

Object ID (CCSDS): 17241

Country: COMMONWEALTH OF INDEPENDENT STATES (CIS)

Current information (Y/N): Y

RCS size: LARGE

Orbital parameters

Period: 104.012 minutes

Inclination: 82.5261 deg

SMA: 7326.257 km

Apoapsis: 960.187 km

Periapsis: 936.057 km

RAAN: 113.5911 deg

Eccentricy: 0.00164682

Argument of periapsis: 118.7105 deg

Mean anomaly: 351.8867 deg

Mean motion: 13.84457301 rev/day

Mean motion (dot): 0.00000134 rev/day2

B* drag term: 0.00010652428 1/REarth

Two-line elements (TLE)

Creation date: Oct. 18, 2025, 2:17 a.m.

Reference frame: TEME

Reference center: EARTH

Epoch: Oct. 17, 2025, 11:24 p.m. UTC

TLE line 0: 0 COSMOS 1809

TLE line 1: 1 17241U 86101A 25290.97529204 .00000134 00000-0 10652-3 0 9992

TLE line 2: 2 17241 82.5261 113.5911 0016468 118.7105 351.8867 13.84457301961314

Live tracking on map

Real-time ground track for satellite COSMOS 1809.

In-orbit conjunctions

A list of the most updated potential collisions computed for object COSMOS 1809.

Target Orbit TCA Probability of collision Miss distance Type
COSMOS 2251 DEB LEO 2024-09-07 02:41:15 0.0003170453 231.0 (m) DEBRIS
FENGYUN 1C DEB SSO 2024-08-25 15:39:09 0.0003667283 639.0 (m) DEBRIS

Associated space launch

Ionospheric research satellite

COSMOS 1809 was lifted into orbit during the mission ‘Tsiklon-3 | Ionozond-E’, on board a Tsiklon-3 space rocket.

The launch took place on Dec. 18, 1986, 8 a.m. from 32/2.

For more information about the launch, click the button.

Launch to space Tsiklon-3 | Ionozond-E
Tsiklon-3 | Ionozond-E

Agency: N/A

Status: Launch Successful

Launch date: Dec. 18, 1986, 8 a.m. UTC

Rocket: Tsiklon-3

Launch pad: 32/2

Location: Plesetsk Cosmodrome, Russian Federation

...

Latest news about this satellite

There are no fresh news available about this satellite. Check back as we update our databases every day.


Newsletter sign-up

Weekly statistics, charts and insights to help you stay on top of the space industry.